Regional Weather Roundup
Issued by NWS

Home | Current Version | Previous Version | Text Only | Print | Product List | Glossary Off
Versions: 1 2 3 4 5 6 7 8 9 10 11 12 13 14 15 16 17 18 19 20 21 22 23 24 25 26 27 28 29 30 31 32 33 34 35 36 37 38 39 40 41 42 43 44 45 46 47 48 49 50

000
ASUS43 KFSD 060210
RWRSD

WEATHER ROUNDUP FOR SOUTH DAKOTA
NATIONAL WEATHER SERVICE SIOUX FALLS SD
800 PM CST THU MAR 05 2015

NOTE: "FAIR" INDICATES FEW OR NO CLOUDS BELOW 12,000 FEET WITH NO
SIGNIFICANT WEATHER AND/OR OBSTRUCTIONS TO VISIBILITY.


SDZ001>005-009-010-012>017-060300-
NORTHWEST AND NORTH CENTRAL SOUTH DAKOTA

CITY           SKY/WX    TMP DP  RH WIND       PRES   REMARKS
BUFFALO          N/A     34  12  40 W7        30.03S WCI  28
FAITH            N/A     31  10  41 W9        30.10R WCI  23
MOBRIDGE       CLEAR     25  13  60 SE6       30.07R WCI  18
$$

SDZ012>016-024>037-041>051-057-063-072>074-060300-
SOUTHWEST AND SOUTH CENTRAL SOUTH DAKOTA

CITY           SKY/WX    TMP DP  RH WIND       PRES   REMARKS
RAPID CTY ARPT CLEAR     30  18  60 NW10      30.13R WCI  21
PIERRE         CLEAR     24  15  68 S5        30.10F WCI  18
CUSTER         CLEAR     28  12  51 CALM      30.12R
ELLSWORTH AFB  CLEAR     31  18  59 NW8       30.12R WCI  23
PHILIP         CLEAR     28  15  58 W8        30.13R WCI  20
PINE RIDGE     CLEAR     34  21  59 W5        30.17R WCI  30
SPEARFISH      FAIR      34  16  47 W12       30.13S WCI  25
WINNER         FAIR      36  14  40 SW6       30.13F
$$

SDZ004>011-016>023-039-040-060300-
NORTHEAST SOUTH DAKOTA

CITY           SKY/WX    TMP DP  RH WIND       PRES   REMARKS
ABERDEEN       CLEAR     12   6  77 S9        30.13F WCI   0
WATERTOWN      CLEAR     17   7  64 SE8       30.15F WCI   7
$$

SDZ017-020-022-023-036>040-048>070-060300-
SOUTHEAST SOUTH DAKOTA

CITY           SKY/WX    TMP DP  RH WIND       PRES   REMARKS
SIOUX FALLS    PTCLDY    26   6  42 S15       30.23F WCI  14
HURON          CLEAR     28   8  43 S9        30.15F WCI  19
CHAMBERLAIN    CLEAR     28  12  52 CALM      30.14S
MITCHELL       CLEAR     26   7  44 S9        30.19F WCI  17
YANKTON        CLOUDY    28   7  40 SE7       30.25F WCI  21
$$

ABBREVIATIONS USED IN REMARKS
   TC - TEMPERATURE IN CELSIUS
  WCI - WIND CHILL INDEX
   HX - HEAT INDEX
  VSB - VISIBILITY



USA.gov is the U.S. government's official web portal to all federal, state and local government web resources and services.